Wetbulb
63.84 64.32 64.94 66.49 68.76 70.96 72.15 73.33 73.64 74.24 73.46 73.62 72.50 72.28 73.01 73.22 72.67 72.24 73.86 73.07 73.17 73.12 71.67 72.63 72.18 70.91 71.15 71.03 70.94 70.75 69.53 68.09
63.77 64.25 65.88 67.52 68.86 69.66 71.25 72.95 74.24 72.97 71.87 71.62 71.09 71.24 71.30 71.90 72.23 73.08 73.19 73.54 73.52 73.09 71.91 72.09 72.26 71.30 71.38 72.08 71.57 70.55 69.75 69.99
62.41 62.88 65.47 67.27 68.19 70.11 71.08 72.29 72.91 73.05 72.17 71.91 72.21 71.94 71.99 71.95 72.21 73.42 73.36 73.66 73.52 72.92 72.50 71.79 71.98 71.08 71.59 71.62 71.37 69.83 69.47 70.04
61.61 62.92 64.36 65.66 66.52 68.92 70.38 71.64 72.78 73.61 73.83 73.26 73.10 73.02 72.51 71.89 72.05 72.06 73.24 73.55 73.52 73.07 73.07 72.30 72.12 72.08 70.94 71.27 70.90 70.01 68.12 69.47
63.75 64.01 64.02 63.83 65.48 66.76 67.17 70.81 72.06 73.22 74.74 73.01 72.83 70.58 69.67 71.03 72.17 72.49 72.87 74.29 73.64 73.14 72.99 72.62 72.39 72.32 71.59 71.70 71.81 70.71 69.52 67.60
63.60 64.51 65.21 66.37 65.10 64.67 66.57 67.08 69.59 71.95 72.86 73.35 72.65 72.31 72.43 72.51 73.22 73.56 73.83 74.34 74.68 73.56 73.23 72.87 72.47 72.22 72.23 72.49 71.64 70.89 70.67 69.94
63.09 65.13 66.14 67.06 69.07 67.60 67.99 68.65 69.06 70.74 72.20 72.86 72.89 72.66 72.76 71.96 72.41 72.35 72.95 73.74 74.11 74.57 73.90 73.11 73.08 72.19 71.83 71.16 70.94 70.13 69.33 68.33
62.13 62.76 62.95 64.54 66.35 68.34 69.00 68.40 67.88 69.94 71.42 72.02 72.29 72.26 71.81 71.86 72.06 71.84 72.12 72.04 72.67 73.06 72.52 70.61 69.55 69.73 69.64 69.97 69.79 68.79 68.51 66.60
60.85 61.48 62.04 62.38 63.89 65.41 66.33 65.90 66.68 69.38 70.62 71.23 72.06 72.13 71.75 71.45 71.84 72.08 72.25 72.16 72.75 73.61 72.79 71.06 69.64 68.70 68.14 68.25 68.34 67.92 67.32 66.69
60.15 61.26 62.06 62.57 63.09 64.31 65.09 64.70 64.48 65.43 66.39 68.20 69.58 70.59 70.70 70.96 72.26 73.14 71.99 73.20 72.28 73.35 72.54 71.48 70.38 68.82 68.04 67.54 67.25 67.03 66.67 66.35
60.54 61.08 61.69 62.93 63.72 64.63 64.91 64.91 64.20 64.48 65.12 65.44 65.57 66.61 68.07 69.39 71.06 71.11 71.40 71.62 72.63 72.19 72.01 71.36 70.03 68.81 68.40 67.78 67.32 67.20 66.90 66.25
60.19 60.98 62.10 62.91 63.65 63.77 63.79 63.82 63.68 63.88 64.43 64.87 65.40 66.00 66.69 67.31 67.69 69.65 70.50 70.99 70.08 69.60 69.35 69.42 69.15 69.06 68.52 67.59 67.91 67.67 65.86 64.67
59.98 60.60 61.42 61.81 61.98 61.78 61.43 62.31 62.43 63.56 64.52 64.97 65.03 65.88 66.04 66.19 66.49 67.55 68.49 67.97 68.00 67.28 67.08 67.03 67.32 66.62 66.19 65.65 64.71 64.82 64.35 62.76
59.22 59.86 60.03 59.94 60.17 59.97 60.01 60.27 60.33 60.44 60.61 60.65 61.41 62.42 62.93 64.13 65.09 65.26 65.17 65.12 65.08 65.67 66.10 65.68 65.97 66.20 66.73 65.99 66.11 64.96 63.19 61.91
58.69 59.16 58.97 58.82 58.71 58.97 59.08 59.10 59.82 59.72 59.59 59.10 58.98 59.56 59.93 60.28 61.29 61.48 62.50 63.49 63.22 62.82 64.18 63.92 64.38 63.56 63.05 63.17 63.49 63.16 62.07 61.18
57.84 57.94 58.11 58.07 58.37 58.52 58.46 58.34 58.43 58.58 57.93 57.43 57.14 57.83 58.35 58.57 59.00 59.01 59.74 60.22 60.14 60.67 60.68 60.82 60.59 60.33 60.62 59.48 59.64 60.09 59.77 59.69
57.20 57.41 56.82 56.70 56.81 57.02 57.10 56.91 56.49 56.43 55.76 54.90 55.01 55.28 55.48 56.01 56.54 56.57 57.07 56.48 57.07 57.84 58.25 58.19 58.40 57.92 40.79 41.56 44.16 50.99 55.18 57.07
55.74 56.03 56.44 56.74 56.33 56.11 55.10 55.15 55.47 54.45 53.98 53.73 53.39 53.67 53.47 54.02 53.39 53.46 54.13 54.32 54.85 54.51 54.82 55.00 54.91 47.50 39.23 40.26 39.38 49.95 50.25 50.18
55.55 56.53 56.11 55.24 55.39 54.79 54.82 54.51 53.61 53.09 52.31 52.05 52.22 52.16 52.04 52.42 52.42 52.12 52.06 52.65 52.69 51.30 51.51 51.24 49.87 44.99 38.66 39.51 39.82 46.33 43.17 41.74
MSLP
999.58 999.63 999.91 1000.18 1001.06 1002.04 1003.28 1004.63 1005.90 1006.91 1007.85 1008.42 1008.44 1008.55 1008.58 1008.72 1008.95 1009.16 1009.40 1009.78 1010.49 1010.93 1011.10 1011.09 1011.30 1011.57 1011.63 1011.69 1011.83 1011.83 1011.88 1012.12
999.24 999.42 999.68 1000.28 1000.84 1001.62 1002.47 1003.73 1005.00 1006.36 1006.88 1007.23 1007.47 1007.28 1007.76 1007.98 1008.18 1008.28 1008.58 1008.93 1009.32 1009.96 1010.28 1010.49 1010.72 1010.68 1010.84 1011.07 1011.31 1011.40 1011.42 1011.71
999.12 999.85 999.87 1000.18 1000.73 1001.44 1002.09 1002.99 1004.19 1005.33 1006.02 1006.38 1006.44 1006.73 1006.75 1007.08 1007.37 1007.55 1007.85 1008.13 1008.58 1008.97 1009.36 1009.44 1009.62 1009.92 1010.14 1010.30 1010.50 1010.59 1010.88 1011.36
999.59 999.97 1000.20 1000.57 1000.91 1001.34 1001.77 1002.35 1003.20 1004.17 1005.00 1005.59 1005.96 1006.27 1006.24 1006.13 1006.17 1006.39 1006.82 1007.43 1007.72 1008.17 1008.38 1008.72 1008.74 1008.87 1008.81 1009.18 1009.51 1009.70 1009.75 1010.28
1000.06 1000.34 1000.79 1001.17 1001.38 1001.53 1001.79 1001.90 1002.53 1003.31 1004.16 1004.72 1005.03 1005.32 1005.29 1005.32 1005.40 1005.40 1005.74 1006.28 1006.93 1007.41 1007.73 1007.91 1008.03 1007.98 1007.86 1008.00 1008.35 1008.63 1009.21 1009.14
1000.26 1000.76 1000.97 1001.27 1001.67 1001.96 1002.06 1002.19 1002.18 1002.82 1003.49 1004.31 1004.67 1004.80 1004.89 1004.89 1004.79 1004.80 1004.96 1005.27 1005.67 1006.19 1006.67 1007.07 1007.28 1007.37 1007.24 1007.28 1007.60 1008.05 1008.24 1008.62
1000.47 1000.83 1001.28 1001.49 1001.98 1002.39 1002.58 1002.41 1002.47 1002.89 1003.48 1003.96 1004.49 1004.68 1004.64 1004.66 1004.60 1004.65 1004.61 1004.64 1004.95 1005.32 1005.77 1006.24 1006.63 1006.86 1006.87 1007.03 1007.28 1007.56 1007.83 1008.08
1000.32 1000.65 1001.27 1001.81 1002.13 1002.52 1002.78 1002.95 1003.17 1003.33 1003.60 1003.87 1004.13 1004.37 1004.57 1004.50 1004.44 1004.39 1004.28 1004.10 1004.20 1004.50 1005.24 1005.84 1006.20 1006.55 1006.68 1006.88 1006.99 1007.09 1007.21 1007.50
1000.56 1000.84 1001.11 1001.82 1002.26 1002.84 1002.84 1002.84 1002.90 1003.29 1003.61 1003.81 1003.97 1004.16 1004.08 1004.01 1003.91 1003.90 1003.80 1003.73 1003.65 1003.77 1004.30 1005.01 1005.54 1005.94 1006.21 1006.43 1006.48 1006.48 1006.67 1006.77
1000.56 1001.11 1001.58 1002.13 1002.49 1003.05 1003.27 1003.17 1003.13 1003.30 1003.55 1003.60 1003.63 1003.81 1003.92 1003.78 1003.69 1003.70 1003.65 1003.60 1003.47 1003.38 1003.58 1004.20 1004.64 1005.00 1005.34 1005.63 1005.66 1005.63 1005.88 1005.94
1000.66 1001.41 1002.06 1002.43 1002.83 1003.30 1003.67 1003.68 1003.63 1003.91 1004.04 1004.11 1003.99 1003.90 1003.78 1003.76 1003.70 1003.67 1003.69 1003.54 1003.33 1003.31 1003.37 1003.59 1003.95 1004.26 1004.50 1004.80 1004.71 1004.85 1005.07 1005.19
1001.12 1001.85 1002.31 1002.77 1003.11 1003.52 1003.94 1004.13 1004.20 1004.31 1004.39 1004.45 1004.43 1004.33 1004.27 1004.11 1003.98 1003.77 1003.65 1003.51 1003.46 1003.39 1003.47 1003.38 1003.47 1003.65 1003.87 1004.00 1004.03 1004.22 1004.45 1004.52
1001.38 1001.97 1002.71 1003.27 1003.59 1003.91 1004.53 1004.86 1004.86 1004.95 1004.91 1004.90 1004.83 1004.66 1004.49 1004.28 1004.06 1003.87 1003.80 1003.69 1003.43 1003.43 1003.47 1003.33 1003.08 1003.28 1003.55 1003.70 1003.84 1004.00 1004.24 1004.58
1001.67 1002.37 1002.93 1003.43 1004.03 1004.55 1005.09 1005.45 1005.41 1005.54 1005.56 1005.56 1005.51 1005.22 1004.99 1004.78 1004.64 1004.54 1004.41 1004.20 1003.94 1003.54 1003.22 1003.11 1002.91 1002.76 1002.74 1003.17 1003.37 1003.64 1003.95 1004.06
1001.89 1002.79 1003.51 1004.09 1004.68 1005.08 1005.48 1005.84 1005.96 1006.13 1006.18 1006.22 1006.13 1005.86 1005.67 1005.56 1005.20 1004.87 1004.76 1004.59 1004.47 1004.33 1003.90 1003.77 1003.48 1003.30 1003.41 1003.31 1003.26 1002.93 1003.17 1003.27
1002.03 1003.04 1003.86 1004.65 1005.28 1005.68 1005.97 1006.09 1006.49 1006.73 1006.77 1006.68 1006.64 1006.38 1006.12 1006.07 1005.87 1005.61 1005.14 1004.94 1004.94 1004.82 1004.47 1004.36 1004.33 1004.09 1003.96 1003.65 1003.47 1003.06 1002.97 1003.10
1002.37 1003.30 1004.23 1005.16 1005.54 1005.91 1006.16 1006.51 1007.07 1007.25 1007.35 1007.29 1007.34 1007.08 1006.80 1006.67 1006.51 1006.26 1005.81 1005.26 1005.19 1005.16 1004.87 1004.70 1004.71 1004.73 1005.51 1005.32 1004.65 1003.92 1003.28 1003.25
1002.78 1003.73 1004.52 1005.50 1005.93 1006.26 1006.75 1007.23 1007.73 1007.82 1007.74 1007.61 1007.61 1007.65 1007.42 1007.49 1007.26 1006.99 1006.68 1006.04 1005.46 1005.47 1005.56 1005.46 1005.48 1006.43 1006.29 1005.67 1004.95 1004.27 1004.27 1004.05
1003.32 1004.23 1005.12 1005.90 1006.53 1007.06 1007.42 1007.82 1008.11 1008.29 1008.28 1008.09 1008.05 1008.22 1008.23 1008.12 1007.82 1007.57 1007.26 1006.89 1006.50 1006.51 1006.39 1006.81 1007.03 1007.41 1007.09 1006.47 1005.85 1005.49 1005.32 1005.08
Wind_Speed
17 13 14 16 15 16 17 15 17 15 13 12 12 12 12 12 12 13 15 14 17 14 13 12 12 11 11 11 12 11 10 9
18 9 11 13 15 15 18 17 16 12 13 13 13 12 12 12 13 16 16 14 16 15 13 13 13 12 12 12 11 13 11 8
8 8 10 11 14 14 15 18 18 15 13 12 11 11 11 12 12 13 15 15 16 15 15 14 15 12 14 14 14 11 10 11
3 6 7 9 13 15 16 17 17 17 16 11 9 10 10 11 12 12 13 16 16 16 16 15 14 13 12 14 14 16 12 11
5 3 1 4 9 10 13 14 16 15 16 13 13 12 12 12 10 11 12 16 16 17 17 16 15 12 14 13 13 14 13 13
8 8 9 8 4 2 6 10 13 13 13 13 11 12 9 9 9 12 12 11 15 17 17 17 16 13 14 14 13 14 12 11
9 9 8 10 10 8 4 5 6 8 10 12 14 13 11 9 9 9 8 8 9 13 16 15 14 14 14 12 13 14 13 13
9 8 9 8 9 9 6 5 4 5 8 10 12 13 13 13 11 9 10 8 8 11 10 10 11 13 13 13 13 13 14 12
8 8 8 8 9 8 6 4 3 4 5 7 8 11 9 9 11 10 9 9 9 11 12 14 15 14 13 13 10 10 11 11
11 9 7 8 6 6 6 6 6 6 7 7 7 8 11 11 12 10 8 9 10 11 7 12 13 13 13 11 9 10 10 11
8 7 6 7 7 7 8 8 8 8 8 8 8 10 10 11 10 11 11 11 11 10 10 6 9 12 12 13 12 11 12 9
7 6 7 8 8 10 11 12 13 11 10 10 10 9 10 10 10 11 11 10 9 5 9 11 11 10 10 10 11 11 11 10
7 6 8 8 9 11 12 11 12 12 12 12 11 10 10 10 10 12 10 8 7 8 9 10 8 8 9 8 8 7 9 10
8 7 7 9 10 10 10 10 12 11 11 12 11 11 12 12 12 11 10 10 11 9 7 5 7 7 5 5 8 9 8 9
10 8 8 9 8 8 8 9 10 10 10 11 12 12 12 12 11 11 11 11 10 11 12 12 10 6 5 7 8 10 10 10
11 9 8 8 6 6 7 8 9 9 9 10 11 11 11 12 12 11 10 11 11 12 11 11 9 8 6 7 7 8 9 12
12 11 10 7 6 6 6 8 8 9 9 10 11 12 12 12 12 12 12 11 12 13 13 12 10 6 16 16 12 9 10 10
13 11 9 7 7 6 7 7 7 7 8 10 11 11 11 11 11 13 13 12 11 12 13 14 13 14 19 17 15 8 8 9
12 10 9 8 7 7 6 7 8 8 9 10 11 11 11 11 12 12 13 11 11 12 13 15 14 13 17 15 13 11 9 10
Wind_Direction
258 260 253 227 226 202 203 192 200 201 203 212 218 220 219 220 219 224 219 209 212 217 229 227 221 227 229 227 234 237 236 242
255 263 231 220 220 214 203 200 192 195 204 206 213 217 218 220 223 225 223 220 209 214 225 224 227 227 228 227 233 233 245 225
219 248 242 214 227 221 221 206 201 201 211 215 218 217 223 222 224 222 224 221 220 216 219 226 221 222 225 227 230 229 232 236
239 249 237 238 236 235 224 218 209 207 213 213 220 230 233 226 222 222 217 222 222 222 224 222 229 223 224 218 222 223 228 219
110 92 66 267 265 252 240 229 211 214 206 220 222 230 230 234 233 230 225 212 219 226 224 231 225 231 224 226 216 221 219 227
102 84 77 73 88 177 225 234 229 217 208 218 227 240 246 250 245 240 231 224 218 217 224 223 233 227 236 228 220 221 230 231
122 104 89 80 73 78 104 168 187 211 216 219 229 252 251 248 255 256 255 241 233 227 223 228 228 236 239 237 230 220 221 226
144 125 99 79 81 82 85 102 149 205 214 225 229 235 246 257 257 258 261 251 242 237 224 225 231 236 236 236 231 228 224 226
150 130 113 98 82 60 61 65 110 172 213 242 246 251 250 252 252 250 258 253 255 254 206 211 220 227 233 234 232 230 224 224
157 130 100 86 77 70 46 24 14 2 341 310 281 274 276 277 274 273 270 266 264 265 213 217 219 223 222 228 230 227 225 229
151 119 105 81 71 67 47 31 32 13 359 346 332 325 308 294 283 271 266 270 273 275 283 235 213 220 226 226 230 230 225 228
146 114 85 67 58 55 41 35 32 27 18 11 0 351 337 321 305 298 290 301 315 277 259 253 247 240 230 231 234 235 227 226
138 122 106 82 65 59 51 45 44 38 36 35 25 13 359 350 336 336 326 283 252 253 262 284 277 247 231 237 252 245 241 243
142 128 100 83 72 64 58 46 43 36 34 38 30 25 20 14 11 2 355 352 348 328 319 271 275 288 277 271 245 249 240 242
141 125 102 91 87 78 65 50 40 29 26 27 24 16 13 7 9 14 6 358 358 352 347 342 332 300 279 279 257 258 246 239
148 138 128 122 111 91 66 54 38 20 17 21 16 9 6 358 358 359 8 8 358 352 351 345 341 334 326 331 292 256 252 254
153 149 141 132 100 78 54 45 32 16 20 21 16 6 2 2 358 354 357 9 5 351 351 349 350 21 9 4 359 327 316 287
160 149 132 119 87 61 50 45 31 19 18 20 19 5 5 1 1 358 354 357 6 2 356 354 351 25 360 357 349 337 325 337
143 136 112 86 72 56 57 37 33 25 22 24 21 12 2 4 356 2 357 355 2 5 5 2 9 14 359 359 355 27 35 30